Location: Unspecified
(0.0000°N, 0.0000°E)
Time: 07:37:47
(UTC+00:00)

Vanguard 2 Rocket - Pass Details

Date: 17 December 2018
Orbit: 554 x 3326 km, 32.9° (Epoch: 15 June)

Event Time Altitude Azimuth Distance (km) Brightness Sun altitude
Rises 20:43:04 0° 226° (SW) 7,314 12.4 -37.6°
Reaches altitude 10° 20:50:36 10° 211° (SSW) 6,231 11.7 -39.3°
Maximum altitude 21:03:21 20° 170° (S) 4,863 10.7 -42.0°
Enters shadow 21:12:31 12° 131° (SE) 4,860 10.4 -43.9°
Drops below altitude 10° 21:13:31 10° 127° (SE) 4,931 - -44.1°
Sets 21:18:19 0° 111° (ESE) 5,462 - -45.1°
